Location: Poughquag
(41.6090°N, 73.6820°W)
Time: 08:48:16
(UTC-05:00)

SR - Pass Details

Date: 08 December 2023
Orbit: 574 x 868 km, 66.7° (Epoch: 25 February)

Event Time Altitude Azimuth Distance (km) Brightness Sun altitude
Rises 21:10:44 0° 308° (NW) 3,405 ? -52.4°
Enters shadow 21:11:53 - 301° (WNW) 3,094 ? -52.6°
Reaches altitude 10° 21:15:48 10° 269° (W) 2,397 - -53.3°
Maximum altitude 21:16:39 10° 260° (W) 2,359 - -53.5°
Drops below altitude 10° 21:17:29 10° 251° (WSW) 2,368 - -53.6°
Sets 21:22:18 0° 212° (SSW) 3,200 - -54.5°
